Regional Weather Roundup
Issued by NWS

Home | Current Version | Previous Version | Graphics & Text | Print | Product List | Glossary On
Versions: 1 2 3 4 5 6 7 8 9 10 11 12 13 14 15 16 17 18 19 20 21 22 23 24 25 26 27 28 29 30 31 32 33 34 35 36 37 38 39 40 41 42 43 44 45 46 47 48 49 50
000
ASUS43 KBIS 251810
RWRND

NORTH DAKOTA REGIONAL WEATHER ROUNDUP
NATIONAL WEATHER SERVICE BISMARCK ND
100 PM CDT TUE APR 25 2017

NOTE: "FAIR" INDICATES FEW OR NO CLOUDS BELOW 12,000 FEET WITH NO
SIGNIFICANT WEATHER AND/OR OBSTRUCTIONS TO VISIBILITY.


NDZ001>003-009>011-017-251900-
NORTHWEST NORTH DAKOTA

CITY           SKY/WX    TMP DP  RH WIND       PRES   REMARKS
WILLISTON      CLOUDY    37  23  56 E15       29.97S
6HR MIN TEMP:  30; 6HR MAX TEMP:  37;

MINOT          CLOUDY    36  25  64 N20       29.92F
MINOT AFB      CLOUDY    35  24  64 N15G23    29.92F
$$

NDZ018>021-031>035-040>046-251900-
SOUTHWEST NORTH DAKOTA

CITY           SKY/WX    TMP DP  RH WIND       PRES   REMARKS
BISMARCK       CLOUDY    32  26  78 N14G23    29.88R
6HR MIN TEMP:  30; 6HR MAX TEMP:  33;

DICKINSON      CLOUDY    27  23  85 N16       29.86R WCI  15
GARRISON         N/A     32  23  69 NE15G23   29.89F
6HR MIN TEMP:  28; 6HR MAX TEMP:  32;

HETTINGER ARPT CLOUDY    27  25  92 N16       29.85S FOG     WCI  15
$$

NDZ004>008-012>016-024-026-027-054-251900-
NORTHEAST NORTH DAKOTA

CITY           SKY/WX    TMP DP  RH WIND       PRES   REMARKS
GRAND FORKS    CLOUDY    35  28  75 N24       29.84R
GRND FRKS AFB  CLOUDY    33  27  78 NE26G33   29.84R WCI  20
DEVILS LAKE    CLOUDY    30  25  81 NE20G30   29.88S WCI  17
$$

NDZ022-023-025-028>030-036>039-047>053-251900-
SOUTHEAST NORTH DAKOTA

CITY           SKY/WX    TMP DP  RH WIND       PRES   REMARKS
FARGO          CLOUDY    37  31  78 N21G31    29.75S
6HR MIN TEMP:  32; 6HR MAX TEMP:  37;

JAMESTOWN      CLOUDY    32  27  81 N21G26    29.81S WCI  20
$$





USA.gov is the U.S. government's official web portal to all federal, state and local government web resources and services.